FW4396 Weather Reports


time (UTC)temp
C
wind
direction
speed
KPH
gust
KPH
rain 1hr
cm
rain 24hr
cm
rain mn
cm
humidity
%
barometer
mb
20260507060030 11 348 0.0 1.6 0.15 0.91 0.33 86 1011.3
20260507054529 11 348 0.0 3.2 0.20 0.91 0.33 85 1011.3
20260507053028 11 346 0.0 1.6 0.20 0.86 0.28 84 1011.4
20260507051526 12 346 0.0 1.6 0.20 0.81 0.23 84 1011.4
20260507050026 12 346 0.0 3.2 0.18 0.76 0.18 83 1011.5
20260507044522 12 346 0.0 4.8 0.13 0.69 0.10 82 1011.3
20260507043024 12 16 0.0 4.8 0.10 0.66 0.08 82 1011.1
20260507041517 12 5 0.0 3.2 0.05 0.61 0.03 81 1010.7
20260507040013 13 329 1.6 6.4 0.03 0.58 0.58 80 1010.5
20260507034512 13 343 3.2 17.7 0.00 0.56 0.56 79 1010.5
20260507033008 13 12 1.6 14.5 0.00 0.56 0.56 78 1010.4
20260507031506 14 334 4.8 16.1 0.00 0.56 0.56 79 1010.4
20260507030003 14 309 4.8 8.0 0.00 0.56 0.56 80 1010.3
20260507024502 15 334 1.6 8.0 0.00 0.56 0.56 79 1010.3
20260507023103 15 319 3.2 8.0 0.00 0.56 0.56 79 1010.0
20260507021559 15 324 3.2 9.7 0.03 0.56 0.56 80 1010.0
20260507020104 15 319 1.6 4.8 0.03 0.56 0.56 80 1010.1
20260507014607 15 324 1.6 8.0 0.03 0.56 0.56 79 1010.2
20260507013055 15 298 6.4 16.1 0.03 0.56 0.56 78 1010.2
20260507011601 16 329 4.8 14.5 0.00 0.53 0.53 79 1010.2
20260507010049 16 319 6.4 16.1 0.00 0.53 0.53 79 1010.0
20260507004546 16 334 4.8 9.7 0.00 0.53 0.53 80 1009.8
20260507003046 16 352 4.8 14.5 0.00 0.53 0.53 81 1009.7
20260507001552 17 350 4.8 14.5 0.00 0.53 0.53 84 1009.3
20260507000045 17 285 6.4 14.5 0.05 0.53 0.53 86 1008.7
20260506234545 18 275 1.6 9.7 0.05 0.53 0.53 85 1008.3
20260506233041 18 262 1.6 9.7 0.05 0.53 0.53 84 1007.9
20260506231542 18 228 4.8 12.9 0.05 0.53 0.53 83 1008.2
20260506230044 19 324 3.2 6.4 0.00 0.48 0.48 82 1008.3
20260506224541 19 309 3.2 8.0 0.00 0.48 0.48 81 1008.0
20260506223040 19 255 0.0 6.4 0.00 0.48 0.48 79 1007.8
20260506221539 19 284 4.8 9.7 0.00 0.48 0.48 78 1007.9
20260506220047 20 282 4.8 9.7 0.00 0.48 0.48 77 1007.6
20260506214538 20 226 3.2 8.0 0.00 0.48 0.48 77 1007.4
20260506213038 20 311 6.4 14.5 0.00 0.48 0.48 75 1007.4
20260506211538 20 260 4.8 14.5 0.00 0.48 0.48 74 1007.3
20260506210037 21 303 6.4 17.7 0.00 0.48 0.48 73 1007.2
20260506204536 21 311 4.8 17.7 0.00 0.48 0.48 75 1007.0
20260506203057 20 296 6.4 14.5 0.00 0.48 0.48 76 1007.1
20260506201534 20 277 6.4 20.9 0.00 0.48 0.48 76 1007.1
20260506200044 19 285 6.4 19.3 0.00 0.48 0.48 77 1007.2
20260506194532 19 246 3.2 12.9 0.00 0.48 0.48 77 1007.2
20260506193030 20 232 8.0 19.3 0.03 0.48 0.48 75 1007.3
20260506191529 19 122 6.4 12.9 0.03 0.48 0.48 78 1007.3
20260506190036 19 226 6.4 19.3 0.03 0.48 0.48 77 1007.5
20260506184527 19 284 8.0 22.5 0.03 0.48 0.48 76 1007.4
20260506183025 20 227 4.8 25.7 0.00 0.46 0.46 78 1007.6
20260506181523 17 239 1.6 16.1 0.00 0.46 0.46 84 1007.8
20260506180021 17 273 4.8 11.3 0.00 0.46 0.46 85 1008.0
20260506174519 17 225 6.4 14.5 0.00 0.46 0.46 85 1007.9
20260506173018 16 188 3.2 14.5 0.00 0.46 0.46 85 1008.0
20260506171518 16 237 4.8 16.1 0.00 0.46 0.46 86 1008.0
20260506170021 16 266 4.8 14.5 0.00 0.46 0.46 87 1008.0
20260506164516 16 307 3.2 12.9 0.00 0.46 0.46 87 1008.1
20260506163029 16 318 3.2 11.3 0.03 0.46 0.46 87 1008.0
20260506161515 16 220 3.2 11.3 0.05 0.46 0.46 87 1008.0
20260506160014 16 259 1.6 12.9 0.10 0.46 0.46 87 1008.3
20260506154527 16 192 1.6 12.9 0.18 0.46 0.46 88 1008.1
20260506153011 16 167 1.6 9.7 0.18 0.43 0.43 87 1007.4
20260506151514 16 188 0.0 11.3 0.15 0.41 0.41 87 1008.6
20260506150008 16 180 1.6 8.0 0.13 0.33 0.33 86 1008.6
20260506144507 16 220 1.6 9.7 0.15 0.28 0.28 86 1008.9
20260506143007 16 267 1.6 12.9 0.20 0.25 0.25 85 1009.0
20260506141504 16 130 6.4 16.1 0.18 0.23 0.23 84 1008.7
20260506140003 16 187 1.6 14.5 0.15 0.20 0.20 83 1008.4
20260506134600 16 200 1.6 6.4 0.10 0.13 0.13 81 1008.5
20260506134504 17 193 1.6 6.4 0.10 0.13 0.13 81 1008.4
20260506133058 17 196 1.6 6.4 0.05 0.05 0.05 80 1008.6
20260506131607 17 171 1.6 8.0 0.05 0.05 0.05 80 1008.6
20260506130056 17 174 1.6 4.8 0.05 0.05 0.05 79 1008.6
20260506124555 17 216 3.2 8.0 0.03 0.03 0.03 77 1008.8
20260506123057 17 202 1.6 8.0 0.00 0.00 0.00 76 1008.9
20260506121605 17 243 1.6 6.4 0.00 0.00 0.00 75 1009.2
20260506120045 18 236 1.6 11.3 0.00 0.00 0.00 74 1009.1
20260506114543 18 218 1.6 8.0 0.00 0.00 0.00 72 1008.7
20260506113040 18 213 3.2 11.3 0.00 0.00 0.00 72 1008.3
20260506111538 18 240 6.4 17.7 0.00 0.00 0.00 71 1008.5
20260506110040 18 242 3.2 14.5 0.00 0.00 0.00 69 1008.1
20260506104535 19 239 4.8 17.7 0.00 0.00 0.00 68 1008.0
20260506103033 19 250 3.2 16.1 0.00 0.00 0.00 67 1008.0
20260506101531 19 186 3.2 12.9 0.00 0.00 0.00 66 1007.8
20260506100031 19 209 3.2 8.0 0.00 0.00 0.00 66 1007.7
20260506094527 19 212 1.6 12.9 0.00 0.00 0.00 65 1007.6
20260506093025 20 207 1.6 11.3 0.00 0.00 0.00 64 1007.5
20260506091524 20 203 3.2 17.7 0.00 0.00 0.00 63 1007.8
20260506090024 20 209 0.0 11.3 0.00 0.00 0.00 62 1007.9
20260506084533 20 192 1.6 11.3 0.00 0.00 0.00 62 1007.8
20260506083024 20 269 3.2 11.3 0.00 0.00 0.00 61 1007.9
20260506081518 20 198 4.8 16.1 0.00 0.00 0.00 60 1007.8
20260506073015 21 251 6.4 12.9 0.00 0.00 0.00 58 1008.0
20260506071513 21 216 4.8 11.3 0.00 0.00 0.00 57 1008.1
20260506061508 21 196 1.6 14.5 0.00 0.00 0.00 56 1008.7